Flag for Canada Weather past 2 weeks in Stonewall, Manitoba, Canada

Now
36 °F

Low clouds.


Feels Like: 25 °F
Forecast: 31 / 41 °F
Wind: 18 mph from Northwest

Location: Winnipeg Int. Airportman.


UV Index: 3 (Moderate)

Visibility: 15 mi


Pressure: 29.96 "Hg

Humidity: 87%

Dew point: 32 °F

Location of StonewallLocation

Historic Weather in Stonewall

°F

Stonewall temperature yesterday

Maximum temperature yesterday: 55 °F (at 5:00 PM)
Minimum temperature yesterday: 28 °F (at 6:00 AM)
Average temperature yesterday: 41 °F

Past Weeks' High & Low Weather Summary

 TemperatureHumidityPressure
High55 °F (Apr 20, 5:00 PM)100% (Apr 6, 5:00 AM)30.47 "Hg (Apr 6, 5:00 AM)
Low9 °F (Apr 15, 6:00 AM)25% (Apr 17, 6:00 PM)29.33 "Hg (Apr 9, 4:00 PM)
Average31 °F70%30.02 "Hg
* Reported Apr 6 3:00 AM — Apr 21 3:00 AM, Stonewall, Weather by CustomWeather, © 2014

Note: Actual official high and low records may vary slightly from our data, if they occured in-between our weather recording intervals... More about our weather records

Advertising

Historic Weather Conditions — Data for Previous 24 hours

 ConditionsComfort  
Time TempWeatherWind HumidityBarometerVisibility
3:00 AM
Apr 21
34 °FPartly cloudy.10 mph93%29.92 "Hg15 mi
2:00 AM34 °FClear.9 mph93%29.89 "Hg15 mi
1:00 AM36 °FClear.13 mph87%29.87 "Hg15 mi
12:00 AM36 °FPassing clouds.14 mph87%29.86 "Hg15 mi
11:00 PM
Apr 20
37 °FPassing clouds.14 mph87%29.84 "Hg15 mi
10:00 PM41 °FPartly cloudy.12 mph87%29.83 "Hg15 mi
9:00 PM46 °FOvercast.7 mph62%29.83 "Hg15 mi
8:00 PM48 °FMostly cloudy.20 mph66%29.85 "Hg15 mi
7:00 PM50 °FPartly sunny.10 mph62%29.89 "Hg15 mi
6:00 PM54 °FPartly sunny.14 mph58%29.93 "Hg15 mi
5:00 PM55 °FPartly sunny.8 mph55%29.96 "Hg15 mi
4:00 PM52 °FPartly sunny.7 mph54%29.98 "Hg15 mi
3:00 PM52 °FPartly sunny.2 mph54%30.00 "Hg15 mi
2:00 PM50 °FPartly sunny.6 mph54%30.03 "Hg15 mi
1:00 PM46 °FPartly sunny.3 mph57%30.05 "Hg15 mi
12:00 PM45 °FPartly sunny.N/A57%30.06 "Hg15 mi
11:00 AM43 °FPartly sunny.3 mph66%30.06 "Hg15 mi
10:00 AM41 °FPartly sunny.5 mph66%30.07 "Hg15 mi
9:00 AM37 °FScattered clouds.5 mph75%30.07 "Hg15 mi
8:00 AM36 °FPassing clouds.3 mph81%30.07 "Hg15 mi
7:00 AM30 °FPassing clouds.3 mph93%30.06 "Hg15 mi
6:00 AM28 °FPassing clouds.6 mph93%30.05 "Hg15 mi
5:00 AM30 °FClear.7 mph93%30.03 "Hg15 mi
4:00 AM32 °FClear.8 mph87%30.03 "Hg15 mi
Weather by CustomWeather, © 2014

See weather overview